Powrót do katalogu

SL-16 DEB

AktywnyLEO
NORAD 22342·DEBRIS·🇷🇺 Russia

Wystrzelony Dec 25, 1992 z Baikonur Cosmodrome

Loading…

Następne Przeloty (najbliższe 24 godziny)

TLE

ŚwieżeSource: Space-Track

Epoka: Sep 14, 2026, 07:10 UTC

1 22342U 92093AF  26257.29884360  .00000150  00000-0  13917-3 0  9998
2 22342  70.6988 199.8098 0119416 320.8667 191.5840 13.94869546710473

Śledź SL-16 DEB w czasie rzeczywistym z AllMySat

Download on the App Store